Find Starlink 3236

NORAD ID: 49750 Int'l Des: 2021-115 Owner: SPXS Country: US Constellation: starlink operational
LEOCIRCULAR

現在のビュー

3D地球を読み込み中...

Starlink 3236について

説明を読み込み中...

次回通過

Passes for default location (London). Set your location on the main map for personalized predictions.

高度履歴

Loading altitude history...

軌道要素

1 49750U 21115AC 26151.19649299 .00000873 00000-0 72938-4 0 9990
2 49750 53.1934 138.7353 0001215 70.0066 290.1057 15.08834024247990
Epoch: May 31, 2026 • Age: 5 hours

現在のステータス

高度 542.7 km
速度 7.60 km/s
衛星直下点 39.21°N, 119.31°W
打ち上げ日 Dec 2, 2021
運用期間 4.4 years
タイプ internet

技術仕様

分類 Payload
質量 290.00 kg
乾燥質量 270.00 kg
総質量 290.00 kg
長さ 0.20 m
直径 2.80 m
スパン 9.00 m
形状 Box + pan
製造者 SPXS
バスタイプ Starlink
フェーズステータス In Orbit
所有者/国 SPXS/US

Most Searched